Lanai City, HI

11:59 AM HST on February 23, 2017 (GMT -1000)
Lanai City

Weather History for PHNY - November, 2011

Change the Weather History Date:

Tuesday, November 15, 2011

  Actual Average Record
Temperature  
Mean Temperature 69 °F -  
Max Temperature 77 °F 79 °F 84 °F (1993)
Min Temperature 61 °F 63 °F 58 °F (1955)
Cooling Degree Days 4    
Growing Degree Days 19 (Base 50)    
Moisture  
Dew Point 64 °F    
Average Humidity 81    
Maximum Humidity 97    
Minimum Humidity 69    
Precipitation  
Precipitation 0.00 in - - ()
Sea Level Pressure  
Sea Level Pressure 30.02 in    
Wind  
Wind Speed 5 mph (North)    
Max Wind Speed 10 mph    
Max Gust Speed -    
Visibility 10 miles    
Events      
Averages and records for this station are not official NWS values.
T = Trace of Precipitation, MM = Missing Value Source: NWS Daily Summary

Daily Weather History Graph

Daily Weather History Graph

Search for Another Location

Airport or City:

Trip Planner

Search our weather history database for the weather conditions in past years. The results will help you decide how hot, cold, wet, or windy it might be!

Date:

Astronomy

Nov. 15, 2011 Rise Set
Actual Time 6:37 AM HST 5:46 PM HST
Civil Twilight 6:14 AM HST 6:10 PM HST
Nautical Twilight 5:47 AM HST 6:36 PM HST
Astronomical Twilight 5:21 AM HST 7:03 PM HST
Moon 10:07 PM HST (11/15) 10:41 AM HST (11/15)
Length of Visible Light 11h 55m
Length of Day
11h 09m
Waning Gibbous, 77% of the Moon is Illuminated
Nov 15
Waning Gibbous
Nov 18
Last Quarter
Nov 24
New
Dec 1
First Quarter
Dec 10
Full

Hourly Weather History & Observations

Time (HST) Temp. Dew Point Humidity Pressure Visibility Wind Dir Wind Speed Gust Speed Precip Events Conditions
12:56 AM 64.9 °F 63.0 °F 93% 30.04 in 10.0 mi NNE 5.8 mph - N/A   Clear
1:56 AM 63.0 °F 61.0 °F 93% 30.02 in 10.0 mi Calm Calm - N/A   Clear
2:56 AM 63.0 °F 59.9 °F 90% 30.01 in 10.0 mi Calm Calm - N/A   Clear
3:56 AM 64.9 °F 61.9 °F 90% 30.00 in 10.0 mi NNE 5.8 mph - N/A   Clear
4:56 AM 65.8 °F 63.0 °F 90% 29.99 in 10.0 mi NNE 4.6 mph - N/A   Clear
5:56 AM 64.9 °F 63.0 °F 93% 30.00 in 10.0 mi ENE 10.4 mph - N/A   Clear
6:56 AM 61.9 °F 61.0 °F 97% 30.03 in 10.0 mi ENE 8.1 mph - N/A   Clear
7:56 AM 68.0 °F 64.9 °F 90% 30.03 in 10.0 mi East 4.6 mph - N/A   Clear
8:56 AM 72.0 °F 64.9 °F 78% 30.04 in 10.0 mi SSE 3.5 mph - N/A   Clear
9:46 AM 73.4 °F 64.4 °F 73% 30.09 in 10.0 mi Calm Calm - N/A   Mostly Cloudy
9:56 AM 73.9 °F 63.9 °F 71% 30.04 in 10.0 mi Calm Calm - N/A   Mostly Cloudy
10:08 AM 73.4 °F 64.4 °F 73% 30.09 in 10.0 mi Calm Calm - N/A   Partly Cloudy
10:56 AM 75.2 °F 66.2 °F 73% 30.07 in 10.0 mi West 9.2 mph - N/A   Partly Cloudy
11:56 AM 74.8 °F 65.8 °F 73% 30.00 in 10.0 mi West 5.8 mph - N/A   Partly Cloudy
12:56 PM 75.9 °F 65.8 °F 71% 29.97 in 10.0 mi WNW 9.2 mph - N/A   Scattered Clouds
1:32 PM 75.2 °F 66.2 °F 73% 30.01 in 10.0 mi WNW 8.1 mph - N/A   Mostly Cloudy
1:44 PM 75.2 °F 66.2 °F 73% 30.01 in 10.0 mi West 4.6 mph - N/A   Scattered Clouds
1:56 PM 75.2 °F 66.2 °F 73% 30.00 in 10.0 mi WNW 8.1 mph - N/A   Scattered Clouds
2:34 PM 77.0 °F 66.2 °F 69% 29.99 in 10.0 mi Variable 3.5 mph - N/A   Mostly Cloudy
2:56 PM 74.8 °F 65.8 °F 73% 29.95 in 10.0 mi West 5.8 mph - N/A   Mostly Cloudy
3:56 PM 72.9 °F 65.8 °F 79% 29.95 in 10.0 mi South 10.4 mph - N/A   Mostly Cloudy
4:04 PM 73.4 °F 66.2 °F 78% 30.00 in 10.0 mi South 9.2 mph - N/A   Mostly Cloudy
4:56 PM 73.4 °F 64.4 °F 73% 30.01 in 10.0 mi SE 4.6 mph - N/A   Mostly Cloudy
5:56 PM 70.9 °F 64.9 °F 81% 29.99 in 10.0 mi Calm Calm - N/A   Partly Cloudy
6:56 PM 70.0 °F 64.9 °F 84% 30.00 in 10.0 mi NE 6.9 mph - N/A   Mostly Cloudy
7:10 PM 69.8 °F 64.4 °F 83% 30.05 in 10.0 mi NE 8.1 mph - N/A   Scattered Clouds
7:56 PM 69.8 °F 64.4 °F 83% 30.06 in 10.0 mi NNE 6.9 mph - N/A   Partly Cloudy
8:56 PM 68.9 °F 63.9 °F 84% 30.02 in 10.0 mi Calm Calm - N/A   Clear
9:56 PM 65.8 °F 63.0 °F 90% 30.02 in 10.0 mi Calm Calm - N/A   Partly Cloudy
10:56 PM 64.9 °F 61.9 °F 90% 30.02 in 10.0 mi Calm Calm - N/A   Clear
11:56 PM 68.0 °F 63.9 °F 87% 30.00 in 10.0 mi NNE 9.2 mph - N/A   Clear